Chester, SC

4:28 PM EDT on October 19, 2019 (GMT -0400)
Chester

Weather History for KDCM - August, 2019

Change the Weather History Date:

Friday, August 9, 2019

  Actual Average (KUZA) Record (KUZA)
Temperature  
Mean Temperature 82 °F -  
Max Temperature 96 °F 89 °F 104 °F (2007)
Min Temperature 68 °F 69 °F 59 °F (1989)
Cooling Degree Days 17    
Growing Degree Days 32 (Base 50)    
Moisture  
Dew Point 58 °F    
Average Humidity 50    
Maximum Humidity 83    
Minimum Humidity 18    
Precipitation  
Precipitation 0.00 in - - ()
Sea Level Pressure  
Sea Level Pressure 29.92 in    
Wind  
Wind Speed 2 mph (West)    
Max Wind Speed 7 mph    
Max Gust Speed -    
Visibility 10 miles    
Events      
Averages and records for this station are not official NWS values.
T = Trace of Precipitation, MM = Missing Value Source: NWS Daily Summary

Daily Weather History Graph

Daily Weather History Graph

Search for Another Location

Airport or City:

Astronomy

Aug. 09, 2019 Rise Set
Actual Time 6:40 AM EDT 8:19 PM EDT
Civil Twilight 6:13 AM EDT 8:46 PM EDT
Nautical Twilight 5:40 AM EDT 9:19 PM EDT
Astronomical Twilight 5:06 AM EDT 9:53 PM EDT
Moon 3:56 PM EDT (8/9) 1:38 AM EDT (8/9)
Length of Visible Light 14h 33m
Length of Day
13h 39m
Waxing Gibbous, 70% of the Moon is Illuminated
Aug 9
Waxing Gibbous
Aug 15
Full
Aug 23
Last Quarter
Aug 30
New
Sep 5
First Quarter

Hourly Weather History & Observations

Time (EDT) Temp. Heat Index Dew Point Humidity Pressure Visibility Wind Dir Wind Speed Gust Speed Precip Events Conditions
12:15 AM 77.0 °F - 60.8 °F 57% 29.92 in 10.0 mi WNW 4.6 mph - N/A   Clear
12:35 AM 77.0 °F - 60.8 °F 57% 29.92 in 10.0 mi NW 3.5 mph - N/A   Clear
12:55 AM 73.4 °F - 60.8 °F 65% 29.93 in 10.0 mi Calm Calm - N/A   Clear
1:15 AM 73.4 °F - 60.8 °F 65% 29.93 in 10.0 mi West 3.5 mph - N/A   Clear
1:35 AM 73.4 °F - 62.6 °F 69% 29.92 in 10.0 mi WNW 4.6 mph - N/A   Clear
1:55 AM 73.4 °F - 62.6 °F 69% 29.92 in 10.0 mi NW 4.6 mph - N/A   Clear
2:15 AM 73.4 °F - 62.6 °F 69% 29.92 in 10.0 mi NW 4.6 mph - N/A   Clear
2:35 AM 73.4 °F - 60.8 °F 65% 29.91 in 10.0 mi NW 3.5 mph - N/A   Clear
2:55 AM 73.4 °F - 60.8 °F 65% 29.91 in 10.0 mi NNW 3.5 mph - N/A   Clear
3:15 AM 73.4 °F - 60.8 °F 65% 29.90 in 10.0 mi Calm Calm - N/A   Clear
3:35 AM 73.4 °F - 60.8 °F 65% 29.90 in 10.0 mi Calm Calm - N/A   Clear
3:55 AM 71.6 °F - 62.6 °F 73% 29.90 in 10.0 mi Calm Calm - N/A   Clear
4:15 AM 73.4 °F - 60.8 °F 65% 29.89 in 10.0 mi NW 3.5 mph - N/A   Clear
4:35 AM 71.6 °F - 60.8 °F 69% 29.89 in 10.0 mi Calm Calm - N/A   Clear
4:55 AM 71.6 °F - 62.6 °F 73% 29.89 in 10.0 mi Calm Calm - N/A   Clear
5:15 AM 69.8 °F - 62.6 °F 78% 29.90 in 10.0 mi Calm Calm - N/A   Clear
5:35 AM 69.8 °F - 62.6 °F 78% 29.90 in 7.0 mi Calm Calm - N/A   Clear
5:55 AM 69.8 °F - 62.6 °F 78% 29.90 in 7.0 mi Calm Calm - N/A   Clear
6:15 AM 68.0 °F - 62.6 °F 83% 29.91 in 7.0 mi NNW 4.6 mph - N/A   Clear
6:35 AM 69.8 °F - 60.8 °F 73% 29.92 in 10.0 mi Calm Calm - N/A   Clear
6:55 AM 69.8 °F - 60.8 °F 73% 29.93 in 7.0 mi Calm Calm - N/A   Clear
7:15 AM 69.8 °F - 62.6 °F 78% 29.94 in 7.0 mi Calm Calm - N/A   Clear
7:35 AM 68.0 °F - 62.6 °F 83% 29.94 in 7.0 mi Calm Calm - N/A   Clear
7:55 AM 69.8 °F - 62.6 °F 78% 29.93 in 7.0 mi Calm Calm - N/A   Clear
8:15 AM 71.6 °F - 64.4 °F 78% 29.94 in 10.0 mi Calm Calm - N/A   Clear
8:35 AM 73.4 °F - 62.6 °F 69% 29.94 in 10.0 mi Calm Calm - N/A   Clear
8:55 AM 75.2 °F - 62.6 °F 65% 29.94 in 10.0 mi Calm Calm - N/A   Clear
9:15 AM 78.8 °F - 62.6 °F 57% 29.95 in 10.0 mi North 5.8 mph - N/A   Clear
9:35 AM 78.8 °F - 62.6 °F 57% 29.95 in 7.0 mi North 4.6 mph - N/A   Clear
9:55 AM 80.6 °F 81.8 °F 62.6 °F 54% 29.95 in 10.0 mi North 5.8 mph - N/A   Clear
10:15 AM 82.4 °F 82.9 °F 60.8 °F 48% 29.95 in 7.0 mi North 6.9 mph - N/A   Clear
10:35 AM 84.2 °F 84.4 °F 60.8 °F 45% 29.96 in 10.0 mi ENE 6.9 mph - N/A   Clear
10:55 AM 86.0 °F 86.1 °F 60.8 °F 43% 29.97 in 7.0 mi Calm Calm - N/A   Clear
11:15 AM 86.0 °F 85.4 °F 59.0 °F 40% 29.97 in 7.0 mi Calm Calm - N/A   Clear
11:35 AM 86.0 °F 85.4 °F 59.0 °F 40% 29.97 in 7.0 mi Calm Calm - N/A   Clear
11:55 AM 87.8 °F 87.1 °F 59.0 °F 38% 29.97 in 10.0 mi Calm Calm - N/A   Clear
12:15 PM 89.6 °F 88.1 °F 57.2 °F 33% 29.96 in 10.0 mi West 4.6 mph - N/A   Clear
12:35 PM 89.6 °F 87.7 °F 55.4 °F 31% 29.95 in 10.0 mi South 3.5 mph - N/A   Clear
12:55 PM 89.6 °F 87.7 °F 55.4 °F 31% 29.95 in 10.0 mi West 5.8 mph - N/A   Clear
1:15 PM 91.4 °F 89.4 °F 55.4 °F 29% 29.94 in 10.0 mi Calm Calm - N/A   Clear
1:35 PM 91.4 °F 89.4 °F 55.4 °F 29% 29.94 in 10.0 mi South 3.5 mph - N/A   Clear
1:55 PM 91.4 °F 89.4 °F 55.4 °F 29% 29.93 in 10.0 mi NNE 3.5 mph - N/A   Clear
2:15 PM 93.2 °F 90.8 °F 53.6 °F 26% 29.93 in 10.0 mi Calm Calm - N/A   Clear
2:35 PM 93.2 °F 91.3 °F 55.4 °F 28% 29.92 in 10.0 mi Calm Calm - N/A   Clear
2:55 PM 95.0 °F 92.7 °F 53.6 °F 25% 29.91 in 10.0 mi SSE 5.8 mph - N/A   Clear
3:15 PM 95.0 °F 92.7 °F 53.6 °F 25% 29.91 in 10.0 mi SSW 3.5 mph - N/A   Clear
3:55 PM 95.0 °F 92.7 °F 53.6 °F 25% 29.89 in 10.0 mi West 4.6 mph - N/A   Clear
4:15 PM 95.0 °F 92.7 °F 53.6 °F 25% 29.88 in 10.0 mi Calm Calm - N/A   Clear
4:35 PM 96.8 °F 94.4 °F 53.6 °F 23% 29.88 in 10.0 mi SW 4.6 mph - N/A   Clear
4:55 PM 95.0 °F - 51.8 °F 23% 29.87 in 10.0 mi WSW 4.6 mph - N/A   Clear
5:15 PM 96.8 °F - 48.2 °F 19% 29.87 in 10.0 mi Calm Calm - N/A   Clear
5:35 PM 96.8 °F - 46.4 °F 18% 29.87 in 10.0 mi West 4.6 mph - N/A   Clear
5:55 PM 96.8 °F - 48.2 °F 19% 29.88 in 10.0 mi WSW 4.6 mph - N/A   Clear
6:15 PM 95.0 °F - 50.0 °F 22% 29.88 in 10.0 mi West 3.5 mph - N/A   Clear
6:35 PM 95.0 °F - 46.4 °F 19% 29.88 in 10.0 mi WSW 5.8 mph - N/A   Clear
6:55 PM 95.0 °F - 46.4 °F 19% 29.88 in 10.0 mi Calm Calm - N/A   Clear
7:15 PM 91.4 °F - 50.0 °F 24% 29.89 in 10.0 mi West 3.5 mph - N/A   Clear
7:35 PM 89.6 °F - 51.8 °F 27% 29.89 in 10.0 mi Calm Calm - N/A   Clear
7:55 PM 87.8 °F 85.7 °F 53.6 °F 31% 29.89 in 10.0 mi Calm Calm - N/A   Clear
8:15 PM 84.2 °F 82.8 °F 53.6 °F 35% 29.89 in 10.0 mi WSW 3.5 mph - N/A   Clear
8:35 PM 82.4 °F 81.7 °F 55.4 °F 39% 29.90 in 10.0 mi Calm Calm - N/A   Clear
8:55 PM 80.6 °F 80.5 °F 55.4 °F 42% 29.90 in 10.0 mi Calm Calm - N/A   Clear
9:15 PM 78.8 °F - 59.0 °F 51% 29.91 in 10.0 mi Calm Calm - N/A   Clear
9:35 PM 78.8 °F - 59.0 °F 51% 29.92 in 10.0 mi SW 3.5 mph - N/A   Clear
9:55 PM 77.0 °F - 60.8 °F 57% 29.92 in 10.0 mi Calm Calm - N/A   Clear
10:15 PM 77.0 °F - 60.8 °F 57% 29.93 in 10.0 mi Calm Calm - N/A   Clear
10:35 PM 77.0 °F - 60.8 °F 57% 29.93 in 10.0 mi Calm Calm - N/A   Clear
10:55 PM 78.8 °F - 60.8 °F 54% 29.93 in 10.0 mi SW 3.5 mph - N/A   Clear
11:15 PM 77.0 °F - 60.8 °F 57% 29.93 in 10.0 mi SW 3.5 mph - N/A   Clear
11:35 PM 77.0 °F - 60.8 °F 57% 29.93 in 10.0 mi SW 3.5 mph - N/A   Clear
11:55 PM 77.0 °F - 60.8 °F 57% 29.93 in 10.0 mi WSW 3.5 mph - N/A   Clear